EHI
0 0 0 0 0 0 0 0 0 0 0 0 0 0 0 0 0 0 0 0 0 0 0 0 0 0 0 0 0 0 0 0 0 0 0 0 0 0 0 0 0 0 0 0
0 0 0 0 0 0 0 0 0 0 0 0 0 0 0 0 0 0 0 0 0 0 0 0 0 0 0 0 0 0 0 0 0 0 0 0 0 0 0 0 0 0 0 0
0 0 0 0 0 0 0 0 0 0 0 0 0 0 0 0 0 0 0 0 0 0 0 0 0 0 0 0 0 0 0 0 0 0 0 0 0 0 0 0 0 0 0 0
0 0 0 0 0 0 0 0 0 0 0 0 0 0 0 0 0 0 0 0 0 0 0 0 0 0 0 0 0 0 0 0 0 0 0 0 0 0 0 0 0 0 0 0
0 0 0 0 0 0 0 0 0 0 0 0 0 0 0 0 0 0 0 0 0 0 0 0 0 0 0 0 0 0 0 0 0 0 0 0 0 0 0 0 0 0 0 0
0 0 0 0 0 0 0 0 0 0 0 0 0 0 0 0 0 0 0 0 0 0 0 0 0 0 0 0 0 0 0 0 0 0 0 0 0 0 0 0 0 0 0 0
0 0 0 0 0 0 0 0 0 0 0 0 0 0 0 0 0 0 0 0 0 0 0 0 0 0 0 0 0 0 0 0 0 0 0 0 0 0 0 0 0 0 0 0
0 0 0 0 0 0 0 0 0 0 0 0 0 0 0 0 0 0 0 0 0 0 0 0 0 0 0 0 0 0 0 0 0 0 0 0 0 0 0 0 0 0 0 0
0 0 0 0 0 0 0 0 0 0 0 0 0 0 0 0 0 0 0 0 0 0 0 0 0 0 0 0 0 0 0 0 0 0 0 0 0 0 0 0 0 0 0 0
0 0 0 0 0 0 0 0 0 0 0 0 0 0 0 0 0 0 0 0 0 0 0 0 0 0 0 0 0 0 0 0 0 0 0 0 0 0 0 0 0 0 0 0
0 0 0 0 0 0 0 0 0 0 0 0 0 0 0 0 0 0 0 0 0 0 0 0 0 0 0 0 0 0 0 0 0 0 0 0 0 0 0 0 0 0 0 0
0 0 0 0 0 0 0 0 0 0 0 0 0 0 0 0 0 0 0 0 0 0 0 0 0 0 0 0 0 0 0 0 0 0 0 0 0 0 0 0 0 0 0 0
0 0 0 0 0 0 0 0 0 0 0 0 0 0 0 0 0 0 0 0 0 0 0 0 0 0 0 0 0 0 0 0 0 0 0 0 0 0 0 0 0 0 0 0
0 0 0 0 0 0 0 0 0 0 0 0 0 0 0 0 0 0 0 0 0 0 0 0 0 0 0 0 0 0 0 0 0 0 0 0 0 0 0 0 0 0 0 0
0 0 0 0 0 0 0 0 0 0 0 0 0 0 0 0 0 0 0 0 0 0 0 0 0 0 0 0 0 0 0 0 0 0 0 0 0 0 0 0 0 0 0 0
0 0 0 0 0 0 0 0 0 0 0 0 0 0 0 0 0 0 0 0 0 0 0 0 0 0 0 0 0 0 0 0 0 0 0 0 0 0 0 0 0 0 0 0
0 0 0 0 0 0 0 0 0 0 0 0 0 0 0 0 0 0 0 0 0 0 0 0 0 0 0 0 0 0 0 0 0 0 0 0 0 0 0 0 0 0 0 0
0 0 0 0 0 0 0 0 0 0 0 0 0 0 0 0 0 0 0 0 0 0 0 0 0 0 0 0 0 0 0 0 0 0 0 0 0 0 0 0 0 0 0 0
0 0 0 0 0 0 0 0 0 0 0 0 0 0 0 0 0 0 0 0 0 0 0 0 0 0 0 0 0 0 0 0 0 0 0 0 0 0 0 0 0 0 0 0
0 0 0 0 0 0 0 0 0 0 0 0 0 0 0 0 0 0 0 0 0 0 0 0 0 0 0 0 0 0 0 0 0 0 0 0 0 0 0 0 0 0 0 0
0 0 0 0 0 0 0 0 0 0 0 0 0 0 0 0 0 0 0 0 0 0 0 0 0 0 0 0 0 0 0 0 0 0 0 0 0 0 0 0 0 0 0 0
0 0 0 0 0 0 0 0 0 0 0 0 0 0 0 0 0 0 0 0 0 0 0 0 0 0 0 0 0 0 0 0 0 0 0 0 0 0 0 0 0 0 0 0
0 0 0 0 0 0 0 0 0 0 0 0 0 0 0 0 0 0 0 0 0 0 0 0 0 0 0 0 0 0 0 0 0 0 0 0 0 0 0 0 0 0 0 0
0 0 0 0 0 0 0 0 0 0 0 0 0 0 0 0 0 0 0 0 0 0 0 0 0 0 0 0 0 0 0 0 0 0 0 0 0 0 0 0 0 0 0 0
0 0 0 0 0 0 0 0 0 0 0 0 0 0 0 0 0 0 0 0 0 0 0 0 0 0 0 0 0 0 0 0 0 0 0 0 0 0 0 0 0 0 0 0
0 0 0 0 0 0 0 0 0 0 0 0 0 0 0 0 0 0 0 0 0 0 0 0 0 0 0 0 0 0 0 0 0 0 0 0 0 0 0 0 0 0 0 0
Wind_Speed
2 3 5 7 8 5 4 5 7 6 3 4 8 11 11 8 6 7 6 4 4 4 3 3 3 3 2 1 1 1 1 1 2 2 2 2 2 2 2 2 2 2 2 3
3 6 6 3 4 5 6 7 7 5 2 4 7 11 10 7 6 6 6 5 4 3 3 4 4 3 2 1 1 1 1 2 2 2 2 1 2 2 1 2 2 2 2 2
7 1 2 4 5 6 7 8 7 5 4 3 6 8 6 4 4 3 3 3 2 3 3 4 4 3 3 2 1 1 1 1 2 2 2 2 2 2 1 1 1 2 2 2
5 3 3 4 6 7 7 5 6 5 4 3 3 7 5 4 4 3 2 1 2 3 3 3 4 4 3 3 2 1 1 1 1 2 2 3 2 2 2 1 1 1 2 2
4 2 3 6 5 6 3 1 3 4 4 5 4 7 6 2 5 4 2 0 2 3 3 3 3 3 3 3 2 1 0 0 0 1 2 2 2 1 1 1 2 1 1 2
2 2 3 3 1 4 4 2 2 2 3 7 6 8 7 4 4 3 2 0 2 3 3 3 4 3 3 3 3 2 1 1 0 0 1 2 2 2 1 1 1 1 1 1
2 3 2 2 3 4 4 3 2 3 4 6 2 7 8 3 3 3 3 1 2 2 3 4 4 4 4 4 3 2 2 1 1 0 1 1 2 2 2 2 2 2 1 1
4 4 5 4 5 6 7 6 5 5 5 4 4 8 5 2 1 1 1 1 2 2 3 3 4 4 4 4 3 2 2 1 1 0 1 1 1 1 2 2 2 2 2 2
5 4 1 2 2 5 5 6 3 2 2 5 7 6 6 3 2 2 1 1 1 2 2 3 3 4 4 4 4 3 2 2 1 1 1 1 1 1 1 1 2 2 2 1
3 4 2 1 2 2 3 3 3 5 5 7 7 8 6 5 6 4 2 2 0 1 2 2 3 3 3 3 4 3 3 2 2 2 1 1 1 1 1 1 1 1 1 2
3 3 2 3 6 7 5 5 5 4 4 6 7 6 2 4 5 5 4 3 1 1 1 2 2 3 3 3 3 3 3 3 2 2 2 1 1 1 1 1 1 1 1 2
3 3 4 6 3 3 7 8 8 6 6 6 7 7 1 2 2 3 3 2 1 1 1 1 2 3 3 4 4 3 3 3 3 2 2 2 1 1 1 1 1 1 1 1
4 4 3 3 4 4 6 7 8 6 5 7 9 9 2 1 2 2 3 2 1 1 1 1 2 2 3 3 3 3 3 3 3 2 2 1 1 1 1 1 1 1 1 1
4 5 7 9 5 4 7 9 10 9 8 10 14 14 8 6 5 5 4 3 2 2 2 2 2 2 3 3 3 3 4 4 3 2 2 1 2 2 2 1 1 1 0 0
4 6 7 9 8 6 9 12 13 15 16 14 14 15 13 9 8 6 5 4 4 4 4 3 3 2 2 2 3 3 4 4 3 2 2 2 2 2 2 1 1 1 1 0
3 5 4 7 7 8 11 15 16 17 17 19 18 18 11 7 6 6 6 6 6 6 5 4 3 3 2 2 3 3 3 3 3 2 2 2 2 2 2 2 1 1 1 1
5 5 5 7 3 4 13 15 16 13 12 13 17 15 7 7 8 8 7 7 7 6 5 5 4 3 2 2 3 3 3 3 2 2 2 2 2 1 2 1 1 1 1 1
7 6 4 4 2 12 8 2 8 11 12 12 12 10 8 8 6 6 5 6 6 5 5 4 3 3 2 2 2 2 2 2 2 2 2 2 2 1 1 1 1 1 1 1
8 7 5 4 8 13 9 4 6 8 11 10 11 10 6 3 4 5 4 5 6 5 4 3 3 2 2 2 2 2 2 2 2 2 2 2 2 1 1 1 1 1 1 1
5 6 6 6 8 11 7 2 3 3 9 5 7 8 5 3 6 5 2 3 3 3 2 2 2 2 2 2 2 2 2 2 2 3 3 2 2 2 2 1 1 1 1 1
7 7 10 10 10 11 4 3 6 7 5 1 5 7 6 7 6 2 1 2 2 2 2 2 3 3 3 2 2 3 3 3 3 3 2 2 2 2 2 1 1 1 1 1
10 9 10 8 10 11 4 7 8 4 2 1 3 4 5 5 3 2 2 2 3 3 3 3 3 3 3 3 3 3 4 4 3 2 2 2 2 2 1 1 1 1 1 1
8 7 6 9 8 2 5 5 2 1 3 3 3 3 4 4 4 4 3 3 3 3 3 3 3 3 3 3 3 4 4 3 3 2 2 2 2 2 2 2 2 2 2 2
5 2 4 6 8 4 5 4 3 3 4 4 4 3 3 4 4 4 4 3 3 3 3 3 3 3 4 3 3 4 3 3 3 3 3 2 2 2 2 2 2 2 2 2
5 5 5 8 6 4 5 5 6 5 4 4 4 4 4 4 5 5 4 4 4 3 3 3 4 4 4 3 3 3 3 3 3 3 3 3 3 2 2 2 2 3 3 4
6 7 8 8 5 6 6 4 4 5 6 5 5 4 4 4 5 5 4 4 4 4 3 3 4 4 4 4 4 4 3 3 4 4 4 3 3 2 2 2 2 4 5 5
Wind_Direction
139 199 220 222 225 246 238 239 264 279 301 275 262 272 281 286 278 273 274 279 288 299 326 340 341 329 314 311 292 249 216 205 186 180 174 169 175 163 169 167 155 168 172 176
176 230 242 230 216 227 230 248 266 285 305 266 276 277 275 270 268 274 274 280 294 314 340 350 348 350 336 325 312 261 211 189 191 197 185 181 164 157 162 155 157 159 165 170
210 235 210 189 205 220 231 237 253 271 307 248 285 273 246 239 243 261 272 275 306 329 337 350 353 349 349 336 310 281 237 196 192 180 159 141 134 124 144 163 172 170 176 178
229 240 201 206 222 218 242 238 239 248 263 264 275 285 261 239 254 260 282 315 351 4 358 359 357 353 354 342 326 297 263 204 185 171 175 174 178 185 186 181 179 166 185 189
216 208 204 220 223 202 227 198 210 228 241 265 231 253 270 220 250 250 242 344 12 9 7 8 3 354 356 358 353 340 353 98 145 168 182 194 201 197 169 159 161 171 187 198
243 217 232 232 211 188 161 138 142 181 222 251 231 233 264 220 240 240 217 319 7 10 11 15 17 15 13 13 12 6 25 41 20 167 190 204 203 183 169 177 184 189 192 208
241 212 208 183 150 160 179 181 218 220 221 243 211 234 257 268 258 239 229 274 32 35 27 22 19 17 15 12 9 3 359 8 0 306 236 230 223 204 203 206 211 208 206 222
216 232 200 200 205 189 196 205 223 245 248 266 225 240 259 297 290 232 196 150 79 56 44 31 18 9 7 1 355 354 346 336 336 310 282 266 242 229 233 230 226 220 226 234
214 237 145 209 230 188 185 211 243 245 278 266 246 253 265 225 206 173 163 137 72 43 31 20 11 7 2 355 351 341 329 321 321 307 315 306 269 245 245 246 243 240 240 237
220 238 238 227 187 213 234 180 181 207 231 251 255 251 244 210 214 206 214 219 256 20 17 11 7 5 2 355 349 347 337 323 319 313 298 295 282 265 256 243 241 250 247 235
225 222 219 202 209 205 183 193 212 213 237 249 262 256 235 228 208 208 219 226 237 318 360 1 1 10 7 4 1 354 345 333 325 316 302 285 278 270 258 256 258 258 253 239
207 219 238 235 236 251 219 211 201 216 228 237 261 267 100 226 225 222 218 228 242 298 355 3 1 5 7 4 359 354 348 338 325 316 306 292 289 274 249 277 287 276 261 247
165 185 229 225 200 200 223 220 220 235 238 229 241 256 121 223 253 236 231 239 251 279 328 346 354 354 352 353 352 350 345 336 327 316 302 298 303 299 294 297 291 273 272 275
183 204 222 241 256 211 231 230 221 216 230 239 241 256 257 261 262 257 249 241 243 251 274 296 316 328 334 340 346 347 347 341 330 318 307 311 313 308 306 309 301 305 313 294
195 229 235 258 262 243 244 243 230 226 233 242 252 258 263 262 258 257 252 243 244 248 258 266 279 298 311 324 336 342 342 343 336 329 323 324 325 322 328 333 334 356 1 359
199 226 234 261 255 252 256 250 238 237 241 247 258 262 266 276 261 249 245 240 245 248 251 253 258 273 287 302 315 322 330 335 331 326 326 329 327 338 347 339 347 360 345 335
197 195 221 254 275 273 255 241 232 230 229 234 246 257 264 262 252 248 243 238 245 248 246 243 244 251 267 285 294 297 310 322 323 322 327 326 325 341 350 346 344 337 329 331
197 202 222 247 226 244 251 227 228 231 241 238 249 260 258 263 274 264 244 236 244 245 242 237 236 247 263 277 284 295 302 305 311 322 323 321 320 330 336 340 337 332 327 314
210 202 206 214 243 264 271 236 201 218 250 241 243 255 262 288 286 256 232 229 236 237 236 229 222 229 243 255 265 277 282 290 295 303 312 311 301 295 299 296 299 312 318 313
198 203 207 210 233 249 260 166 182 201 254 225 226 243 245 231 256 257 209 225 231 227 221 215 212 218 228 241 245 248 263 274 281 289 294 299 293 274 265 273 285 294 291 290
179 197 214 221 239 258 259 161 167 205 256 236 229 234 222 231 256 290 205 221 220 217 217 212 212 221 227 226 221 234 251 260 272 281 287 288 285 276 263 261 264 266 269 274
190 191 202 204 225 245 164 162 197 240 353 300 255 238 230 251 278 278 240 230 227 223 218 217 221 232 235 226 221 236 254 270 277 271 270 274 277 274 263 245 249 242 224 226
213 208 200 206 225 278 166 195 226 298 275 280 268 260 237 252 261 259 249 237 229 228 230 226 224 235 245 239 232 239 260 276 272 260 259 267 273 270 259 240 236 237 232 229
224 212 211 240 253 252 230 246 274 274 277 290 285 265 243 248 251 254 248 242 234 233 232 228 228 239 251 252 250 253 268 270 252 248 255 256 252 252 254 249 237 232 231 230
218 185 213 248 266 284 251 251 269 276 281 288 291 279 256 247 252 249 250 249 243 238 236 231 233 241 254 261 260 267 268 257 243 245 250 250 247 246 251 254 246 240 242 234
208 205 214 238 240 242 266 277 270 267 269 269 273 282 279 257 252 255 255 251 244 240 238 237 241 247 256 260 261 266 260 247 238 238 240 239 239 240 242 249 264 266 260 261